Погода в Намангане

Погода в Намангане : погода сейчас, прогноз погоды и архив. Всё, что Вы хотите узнать о погоде в Намангане!

Хотите узнать прогноз погоды в Намангане? Тогда Вам сюда: Погода в Намангане

Поиск расширенной информации на нашем сайте:

Другие новости

Новости СМИ2

Главная страница сайта

Новости сайта

03.07.2017

Напоминаем, что на нашем специализированном сайте Метеоцентр.Азия вы можете получить высокодетализированные автоматические прогнозы погоды по пунктам России, СНГ и мира в авиационном формате (включающие направление и скорость ветра, видимость, явления погоды, количество и форму облачности, нижнюю и верхнюю границу облачности).

Рекомендуем: Тумбы в прихожую недорогие тумбы.

Погода в Намангане - сегодня

Время (UTC), дата Ветер
(°,м/с) 
Видим.   Явления Облачность Т
(°С)
Тd
(°С)
f(%) Тe
(°С)
Pmin
(гПа)
dP
(гПа)
Po
(мм)
O2
(г/м3)
Тmin Tmax R s Состояние
почвы
09 19.07.17 170 (Ю) 10 км    ясно 
+33.8 +9.5 23 +35  1006.6  -1.7  716  255           
12 19.07.17 170 (Ю) 10 км    ясно 
+34.4 +9.8 22 +36  1005.1  -1.3  716  254           
15 19.07.17 тихо ()   10 км    3/3 1500 м кучево-дожд. 
[Cb calv]
+31.5 +11.5 29 +36  1005.2  -0.4  715  256    +35.6       
18 19.07.17 330 (СЗ) 10 км    ясно 
+25 +14.4 52 +34  1006.6  0.3  715  261    +35.6       
21 19.07.17 340 (С) 10 км    ясно 
+22.6 +12.6 53 +29  1006.8  -0.2  715  264           
00 20.07.17 360 (С) 10 км    ясно 
+21.6 +12 54 +27  1007.1  715  265    +2.2       
03 20.07.17 100 (В) 10 км    ясно 
+25 +13.2 48 +32  1007.3  0.8  716  262  +20.8        сухая 
06 20.07.17 110 (В) 10 км    1/1 1500 м кучево-дожд. 
[Cb calv]
+30.6 +12.3 33 +36  1006.8  0.4  716  257  +20.8         
09 20.07.17 190 (Ю) 10 км    1/1 1500 м кучево-дожд. 
[Cb calv]
+33.7 +12.3 27 +39  1005.8  -0.4  716  254           
12 20.07.17 200 (Ю) 10 км    ясно 
+34.5 +12.6 27 +40  1004.4  -1.1  715  253           
15 20.07.17 тихо ()   10 км    ясно 
+31 +15 38 +41  1004.8  -0.2  715  256    +35.4       
18 20.07.17 320 (СЗ) 10 км    ясно 
+25.4 +14.8 52 +35  1005  -0.7  714  260    +35.4       
21 20.07.17 340 (С) 10 км    ясно 
+23.8 +12.9 50 +30  1005.4  714  262           
00 21.07.17 340 (С) 10 км    ясно 
+22.8 +12.1 51 +28  1005.8  0.2  715  263           
03 21.07.17 130 (ЮВ) 10 км    ясно 
+26.6 +14.2 46 +35  1006.1  715  260           
06 21.07.17 170 (Ю) 10 км    ясно 
+31.2 +10 27 +33  1005.3  -0.1  715  257  +21.8         
09 21.07.17 180 (Ю) 10 км    ясно 
+34 +10.7 24 +37  1004.1  -0.6  715  254           
12 21.07.17 210 (ЮЗ) 10 км    ясно 
+35.7 +10.7 22 +39  1002.8  -1  714  253           
15 21.07.17 280 (З) 10 км    3/0 
+31.5 +13.4 33 +39  1003.1  -0.4  714  255    +36.7       
18 21.07.17 350 (С) 10 км    ясно 
+26.4 +15.4 51 +37  1004.6  0.7  714  259    +36.7       
21 21.07.17 340 (С) 10 км    ясно 
+24 +14.6 56 +33  1005.7  0.6  715  262           
00 22.07.17 360 (С) 10 км    ясно 
+23 +13.1 54 +30  1006.9  0.9  715  263           
03 22.07.17 080 (В) 10 км    ясно 
+29.7 +12.6 35 +36  1006.1  0.4  716  258  +22.4        сухая 
06 22.07.17 160 (Ю) 10 км    1/1 1500 м кучево-дожд. 
[Cb calv]
+32.8 +14 32 +41  1005.5  -0.1  716  255  +22.4         
09 22.07.17 170 (Ю) 10 км    3/3 1500 м кучево-дожд. 
[Cb calv]
+36 +12.8 25 +42  1003.9  -0.9  715  252           
Время (UTC), дата Ветер
(°,м/с) 
Видим.   Явления Облачность Т
(°С)
Тd
(°С)
f(%) Тe
(°С)
Pmin
(гПа)
dP
(гПа)
Po
(мм)
O2
(г/м3)
Тmin Tmax R s Состояние
почвы

Для получения пояснительной информации подведите курсор к названию столбца.

ПОГОДА в Намангане - архив

Всё, что Вы хотите узнать о погоде в Намангане - удобно и подробно!

Выберите нужную дату (начиная с 1 января 2015* года) и нажмите кнопку "Найти".
Будут отображены архивные сводки погоды по пункту Наманган, начиная с указанной даты.


Отображать данные в формате CSV (для использования в таблицах Excel)


Внимание! Наш архив погоды предназначен исключительно для личного некоммерческого использования в познавательных целях. Если Вам необходимы официальные справки о состоянии погоды (для производственных, юридических, коммерческих и т.п. целей), обращайтесь в органы Росгидромета.

*Примечание: данная дата относится к архиву по метеостанциям СССР (Россия, СНГ, Балтия).
Архив по метеостанциям Зарубежной Европы и Азии (кроме Китая) хранится 10 дней, по другим регионам земного шара (Китай, Африка, Америка, Австралия, Океания) - 1 день.

Наманган - район местоположения метеостанции


Название, широта, долгота, высота метеостанции:
Наманган 41°ш. 71.6°д. 474 м над ур. моря [Узбекистан]

Дополнительная информация

В oтличие oт бoльшинства пoгoдных сайтoв мы публикуем пoдрoбную метеoинфoрмацию в детальнoм прoфессиoнальнoм фoрмате.

Характеристики температуры и влажнoсти вoздуха измеряются на высoте 2 м в тени вдали oт зданий и деревьев.
Скoрoсть ветра измеряется на высoте 10 м (на урoвне рoста челoвека скoрoсть ветра ниже в 1.5-2 раза). Если метеoстанция нахoдится в гoрoде или в лесу, тo скoрoсть ветра занижена на 2-4 м/с пo сравнению с oткрытым местoм. Скoрoсть ветра над акватoриями крупных рек и oзёр, а также на вершинах хoлмoв на 2-5 м/с выше, чем в oбычных услoвиях.
Атмoсфернoе давление в разных тoчках местнoсти мoжет значительнo oтличаться oт давления на метеoстанции, в зависимoсти oт услoвий рельефа (при пoдъёме на 10 м давление пoнижается примернo на 1 мм рт.ст.).